Weather Roundup
Issued by NWS

Home | Current Version | Previous Version | Graphics & Text | Print | Product List | Glossary Off
Versions: 1 2 3 4 5 6 7 8 9 10 11 12 13 14 15 16 17 18 19 20 21 22 23 24 25 26 27 28 29 30 31 32 33 34 35 36 37 38 39 40 41 42 43 44 45 46 47 48 49 50

776
NZUS93 KARX 250359
HRRWXR

CURRENT HOURLY OBSERVATIONS ACROSS
MUCH OF THE UPPER MISSISSIPPI VALLEY
NATIONAL WEATHER SERVICE LA CROSSE WI
1100 PM CDT MON APR 24 2017


...SOUTHEAST MINNESOTA...


CITY           SKY/WX    TMP DP  RH WIND       PRES   REMARKS
ROCHESTER      CLOUDY    60  34  37 S12       29.61F
ROCHESTER/MAYO CLOUDY    63  33  32 SE9G17    29.60F
WINONA         CLOUDY    61  37  41 SE5       29.63S
AUSTIN         PTCLDY    59  30  33 S8        29.58F
ALBERT LEA     CLOUDY    61  28  29 S12       29.56F
DODGE CENTER   CLOUDY    57  34  41 SE8       29.59F
PRESTON        PTCLDY    59  30  34 SE12      29.62F
OWATONNA       MOCLDY    63  28  27 SE12      29.56F
FARIBAULT      CLOUDY    64  32  29 SE10G16   29.57S
$$

...ELSEWHERE IN MINNESOTA...


CITY           SKY/WX    TMP DP  RH WIND       PRES   REMARKS
MINNEAPOLIS    CLOUDY    66  31  27 S6        29.55S
INTNL FALLS    LGT RAIN  35  33  92 SE15      29.63F WCI  25
DULUTH         CLOUDY    37  33  85 E16G28    29.62F WCI  28
RED WING       CLOUDY    66  27  22 SE8       29.58F
REDWOOD FALLS  CLOUDY    59  45  59 SE9       29.50S
MANKATO        CLOUDY    59  45  59 SE9       29.54F
WORTHINGTON    CLOUDY    55  45  68 W10       29.53R
FAIRMONT       CLOUDY    61  36  39 S13       29.52F
$$

...SOUTHWEST WISCONSIN...


CITY           SKY/WX    TMP DP  RH WIND       PRES   REMARKS
LA CROSSE      CLOUDY    66  32  28 S7        29.63S
PRAIRIE DU CHI PTCLDY    66  26  21 SE6       29.65S
BOSCOBEL       CLOUDY    68  29  23 VRB5      29.67R
LONE ROCK      NOT AVBL
PLATTEVILLE    CLOUDY    62  33  33 SE9       29.69S
FORT MC COY    CLOUDY    65  30  26 S6        29.65F
MAUSTON-NEW LI CLOUDY    62  37  38 SE7       29.70R
VIROQUA        MOCLDY    63  29  27 S9        29.67R
WIS DELLS      CLOUDY    61  31  32 SE7       29.71S
$$

...ELSEWHERE IN WISCONSIN...


CITY           SKY/WX    TMP DP  RH WIND       PRES   REMARKS
MILWAUKEE      CLOUDY    47  36  65 NE3       29.78F
MADISON        CLOUDY    62  29  28 SE15      29.72S
GREEN BAY      CLOUDY    50  38  63 SE9       29.77F
EAU CLAIRE     NOT AVBL
BLACK RVR FLS  FAIR      64  27  25 CALM      29.65S
MEDFORD        CLOUDY    58  34  40 SE7G17    29.70F
WAUSAU         CLOUDY    58  31  35 SE8       29.72R
WIS RAPIDS     NOT AVBL
MARSHFIELD     CLOUDY    58  33  39 SE8       29.68F
RICE LAKE      CLOUDY    62  31  31 SE9       29.63F
$$

...NORTHEAST IOWA...


CITY           SKY/WX    TMP DP  RH WIND       PRES   REMARKS
WATERLOO       CLEAR     61  30  31 SE12      29.61F
DUBUQUE        CLOUDY    61  31  32 S10       29.68S
DECORAH        MOCLDY    63  30  29 S10G17    29.63F
MASON CITY     CLOUDY    59  32  36 S12       29.59F
CHARLES CITY   PTCLDY    61  28  29 SE12      29.61F
OELWEIN        NOT AVBL
$$

...ELSEWHERE IN IOWA...


CITY           SKY/WX    TMP DP  RH WIND       PRES   REMARKS
DES MOINES     CLOUDY    64  35  34 S8        29.59F
IOWA CITY      CLEAR     60  32  34 SE3       29.68S
FORT DODGE     CLOUDY    64  34  32 S8        29.57S
MARSHALLTOWN   CLEAR     60  34  37 SE12      29.60F
CEDAR RAPIDS   CLEAR     57  32  38 SE5       29.65S
$$

...NORTHERN ILLINOIS...


CITY           SKY/WX    TMP DP  RH WIND       PRES   REMARKS
CHICAGO-OHARE  PTCLDY    53  36  52 NE3       29.76F
CHICAGO-MIDWAY PTCLDY    60  39  45 SE5       29.77S
MOLINE           N/A     62  30  29 MISG      29.68R
ROCKFORD       CLOUDY    60  32  34 SE10      29.74F
PEORIA         CLEAR     63  29  27 SE8       29.71F
$$

NOTE: "FAIR" INDICATES FEW OR NO CLOUDS BELOW 12,000 FEET WITH NO
SIGNIFICANT WEATHER AND/OR OBSTRUCTIONS TO VISIBILITY. WIND
SPEEDS ARE IN MILES-PER-HOUR.




USA.gov is the U.S. government's official web portal to all federal, state and local government web resources and services.